Temp
-15 -15 -15 -15 -15 -14 -14 -13 -13 -13 -13 -12 -12 -12 -12 -12 -12 -13 -14 -14 -13 -13 -13 -13 -13 -12 -12 -12 -12 -12 -11 -11 -11 -11 -12 -11 -11 -12 -13 -14 -12 -14 -14 -12
-15 -15 -15 -15 -15 -14 -14 -13 -13 -13 -13 -13 -12 -13 -12 -12 -12 -12 -13 -13 -13 -13 -12 -13 -13 -12 -12 -12 -11 -12 -12 -12 -12 -12 -12 -13 -13 -13 -13 -13 -13 -13 -13 -13
-16 -16 -15 -15 -15 -15 -14 -14 -13 -13 -13 -13 -13 -13 -13 -13 -13 -12 -13 -12 -13 -13 -13 -12 -12 -12 -11 -12 -12 -12 -11 -12 -12 -12 -12 -13 -13 -14 -14 -15 -14 -14 -13 -14
-16 -16 -15 -15 -15 -15 -15 -14 -14 -13 -13 -13 -13 -13 -13 -13 -13 -13 -13 -12 -12 -12 -12 -12 -12 -12 -11 -11 -11 -11 -12 -12 -12 -12 -13 -13 -14 -14 -14 -14 -14 -15 -14 -15
-16 -16 -16 -15 -15 -15 -15 -14 -14 -14 -13 -13 -13 -13 -13 -13 -13 -13 -13 -13 -12 -12 -12 -12 -12 -12 -12 -11 -11 -11 -11 -12 -12 -12 -13 -14 -14 -14 -14 -14 -15 -15 -15 -16
-17 -17 -16 -16 -16 -15 -15 -15 -15 -14 -14 -14 -14 -14 -14 -14 -14 -13 -13 -13 -13 -12 -12 -12 -12 -12 -11 -11 -11 -11 -11 -11 -11 -11 -12 -13 -14 -15 -15 -15 -16 -16 -16 -15
-17 -17 -17 -16 -16 -15 -15 -15 -15 -14 -14 -14 -14 -14 -14 -14 -14 -14 -13 -13 -13 -13 -13 -13 -12 -12 -12 -12 -11 -11 -11 -11 -11 -11 -12 -13 -15 -15 -16 -17 -17 -16 -16 -16
-17 -17 -17 -17 -16 -16 -15 -15 -15 -15 -14 -14 -14 -14 -14 -14 -14 -14 -13 -13 -13 -13 -13 -13 -12 -12 -12 -12 -12 -12 -12 -12 -12 -11 -12 -12 -14 -15 -16 -16 -17 -17 -17 -16
-18 -18 -18 -17 -17 -16 -16 -15 -15 -15 -15 -14 -14 -14 -14 -14 -14 -14 -14 -13 -13 -13 -13 -13 -13 -13 -13 -13 -12 -12 -12 -12 -12 -12 -12 -12 -14 -14 -15 -17 -17 -17 -17 -17
-18 -18 -18 -18 -17 -17 -16 -16 -16 -15 -15 -14 -14 -14 -14 -14 -14 -14 -14 -14 -14 -14 -13 -13 -13 -13 -13 -13 -13 -13 -13 -13 -13 -13 -13 -13 -13 -14 -16 -16 -17 -17 -17 -17
-18 -18 -18 -18 -17 -17 -17 -17 -16 -16 -15 -15 -15 -14 -14 -14 -14 -14 -14 -14 -14 -14 -14 -13 -13 -13 -14 -13 -13 -13 -14 -13 -14 -13 -13 -14 -14 -15 -17 -17 -17 -17 -17 -17
-18 -18 -18 -18 -18 -18 -17 -17 -17 -16 -16 -15 -15 -15 -14 -14 -14 -14 -14 -14 -14 -14 -14 -14 -14 -14 -14 -14 -14 -14 -14 -14 -14 -14 -15 -14 -13 -15 -16 -17 -18 -17 -17 -17
-19 -18 -18 -18 -18 -18 -18 -17 -17 -16 -16 -16 -15 -15 -15 -14 -14 -14 -14 -14 -14 -14 -14 -14 -14 -14 -14 -14 -14 -14 -14 -14 -15 -14 -15 -14 -15 -17 -17 -18 -18 -18 -17 -17
-19 -19 -19 -18 -18 -18 -18 -18 -17 -17 -17 -16 -16 -15 -15 -15 -15 -14 -14 -14 -14 -14 -14 -14 -15 -15 -15 -15 -15 -15 -15 -15 -15 -15 -14 -15 -16 -17 -18 -18 -18 -17 -17 -17
-19 -19 -19 -19 -18 -18 -18 -18 -18 -17 -17 -16 -16 -16 -15 -15 -15 -15 -14 -14 -14 -14 -14 -15 -15 -15 -15 -15 -15 -16 -15 -15 -15 -15 -15 -16 -17 -18 -18 -17 -17 -18 -18 -17
-19 -19 -19 -19 -19 -19 -18 -18 -19 -18 -17 -17 -17 -16 -16 -16 -15 -15 -15 -15 -15 -15 -15 -15 -15 -15 -15 -15 -16 -16 -16 -15 -15 -15 -16 -17 -18 -18 -18 -18 -18 -19 -18 -18
-20 -19 -19 -19 -19 -18 -18 -18 -19 -19 -18 -17 -17 -16 -16 -16 -16 -16 -15 -15 -15 -15 -15 -16 -16 -16 -16 -16 -16 -16 -16 -16 -15 -16 -17 -18 -18 -18 -18 -18 -18 -19 -18 -18
-20 -20 -19 -19 -19 -19 -18 -18 -18 -19 -19 -18 -17 -17 -17 -16 -16 -16 -16 -16 -16 -16 -16 -16 -16 -16 -16 -17 -16 -16 -16 -16 -16 -17 -18 -18 -18 -18 -19 -18 -19 -19 -19 -19
-20 -20 -20 -19 -19 -19 -18 -19 -18 -18 -18 -18 -17 -17 -17 -17 -17 -16 -16 -16 -16 -16 -16 -16 -16 -17 -17 -17 -17 -17 -16 -16 -17 -18 -18 -18 -18 -19 -18 -18 -19 -19 -19 -19
-21 -20 -20 -20 -19 -19 -19 -19 -18 -18 -18 -18 -18 -17 -17 -17 -17 -17 -17 -17 -17 -16 -17 -16 -17 -17 -17 -17 -17 -17 -17 -17 -17 -18 -18 -18 -18 -18 -18 -18 -19 -19 -19 -19
-21 -21 -20 -20 -20 -19 -19 -19 -19 -18 -18 -18 -18 -18 -18 -18 -18 -17 -17 -17 -17 -17 -17 -17 -17 -17 -17 -17 -17 -17 -17 -18 -18 -18 -18 -18 -19 -18 -18 -19 -19 -19 -20 -19
-21 -21 -21 -20 -20 -20 -19 -19 -19 -18 -18 -18 -19 -18 -18 -18 -18 -18 -18 -17 -17 -17 -17 -18 -18 -18 -18 -18 -18 -18 -18 -18 -18 -19 -19 -18 -18 -18 -19 -19 -19 -20 -20 -20
-21 -21 -21 -21 -20 -20 -19 -19 -19 -19 -19 -19 -19 -19 -19 -19 -19 -19 -18 -18 -18 -18 -18 -18 -18 -18 -18 -18 -18 -18 -18 -18 -19 -19 -19 -18 -18 -19 -19 -19 -19 -20 -20 -20
-22 -22 -21 -21 -20 -20 -19 -19 -19 -19 -19 -19 -20 -20 -19 -19 -19 -19 -19 -19 -19 -18 -18 -18 -19 -19 -19 -19 -19 -19 -19 -19 -20 -19 -19 -19 -19 -19 -19 -20 -20 -20 -20 -21
-23 -22 -22 -21 -20 -20 -20 -20 -20 -20 -20 -20 -20 -20 -20 -19 -19 -19 -19 -19 -19 -19 -19 -19 -19 -19 -19 -19 -19 -19 -19 -20 -20 -20 -20 -20 -19 -20 -20 -20 -20 -21 -21 -22
-23 -23 -22 -21 -21 -21 -21 -20 -20 -20 -20 -20 -20 -20 -20 -20 -19 -19 -19 -19 -19 -19 -19 -19 -19 -19 -19 -19 -19 -19 -20 -20 -20 -20 -20 -20 -20 -20 -20 -20 -21 -22 -22 -22
-23 -22 -22 -22 -22 -21 -21 -21 -21 -20 -21 -21 -21 -20 -20 -20 -20 -20 -20 -20 -20 -20 -19 -19 -19 -20 -20 -20 -20 -20 -20 -21 -20 -20 -20 -20 -20 -20 -20 -22 -22 -22 -22 -22
Height
5687 5695 5702 5710 5717 5724 5730 5736 5744 5748 5754 5760 5763 5767 5769 5770 5770 5772 5776 5780 5785 5787 5790 5794 5796 5795 5800 5807 5807 5808 5807 5812 5813 5814 5812 5811 5813 5813 5810 5806 5807 5805 5802 5802
5679 5687 5695 5703 5710 5717 5724 5729 5739 5743 5749 5755 5760 5763 5766 5767 5769 5770 5773 5776 5780 5783 5785 5790 5791 5791 5795 5798 5800 5802 5803 5804 5805 5807 5810 5808 5803 5801 5802 5801 5800 5798 5795 5793
5671 5680 5688 5696 5703 5711 5717 5725 5733 5737 5743 5749 5756 5759 5762 5765 5767 5769 5771 5774 5776 5779 5781 5785 5785 5787 5789 5791 5792 5793 5794 5796 5797 5799 5800 5801 5797 5793 5794 5794 5791 5789 5789 5787
5662 5672 5681 5689 5697 5704 5711 5718 5725 5732 5738 5746 5750 5755 5758 5761 5764 5767 5770 5772 5775 5776 5778 5780 5781 5782 5783 5784 5784 5785 5787 5787 5788 5789 5790 5791 5793 5789 5788 5787 5787 5784 5780 5778
5655 5665 5673 5681 5690 5698 5704 5711 5719 5727 5733 5740 5745 5750 5754 5757 5760 5764 5767 5770 5772 5774 5776 5777 5778 5779 5779 5778 5779 5779 5779 5779 5780 5780 5781 5782 5780 5776 5779 5778 5777 5773 5772 5770
5647 5657 5666 5674 5682 5691 5698 5705 5712 5719 5726 5733 5739 5746 5749 5753 5756 5760 5763 5766 5768 5769 5772 5775 5775 5775 5775 5775 5775 5774 5774 5774 5773 5773 5772 5771 5769 5772 5766 5765 5768 5766 5761 5755
5640 5649 5659 5668 5675 5683 5693 5700 5707 5713 5722 5728 5733 5739 5744 5748 5751 5755 5758 5762 5763 5767 5769 5770 5771 5771 5771 5771 5771 5771 5770 5769 5767 5766 5766 5764 5765 5759 5756 5757 5758 5756 5752 5747
5633 5642 5652 5661 5668 5677 5685 5691 5700 5706 5713 5720 5727 5735 5738 5742 5747 5750 5754 5756 5760 5763 5764 5765 5766 5767 5767 5767 5767 5766 5765 5764 5762 5761 5760 5759 5756 5752 5751 5750 5747 5747 5745 5742
5626 5635 5645 5654 5662 5671 5678 5686 5693 5701 5708 5712 5720 5727 5732 5737 5741 5745 5749 5752 5756 5757 5758 5760 5761 5762 5762 5761 5761 5762 5761 5760 5759 5755 5754 5751 5749 5743 5745 5743 5741 5735 5736 5733
5619 5629 5638 5647 5655 5664 5672 5679 5686 5694 5701 5708 5716 5720 5726 5731 5736 5740 5744 5747 5750 5752 5754 5755 5756 5757 5758 5757 5756 5755 5754 5753 5751 5749 5747 5744 5742 5738 5738 5736 5735 5728 5726 5725
5612 5622 5631 5639 5648 5657 5666 5673 5680 5688 5696 5702 5708 5715 5720 5726 5729 5734 5740 5743 5745 5748 5749 5751 5751 5752 5752 5752 5751 5750 5749 5748 5747 5745 5742 5739 5736 5732 5731 5729 5721 5721 5718 5715
5605 5616 5625 5633 5642 5651 5660 5667 5675 5681 5690 5697 5703 5708 5713 5719 5723 5728 5733 5736 5739 5742 5744 5746 5747 5748 5747 5747 5747 5744 5745 5743 5741 5739 5736 5730 5726 5726 5721 5718 5714 5712 5710 5707
5598 5609 5619 5628 5637 5644 5653 5662 5668 5675 5683 5690 5696 5702 5709 5714 5718 5723 5727 5731 5735 5736 5738 5740 5741 5741 5742 5741 5739 5739 5737 5738 5735 5734 5730 5727 5723 5719 5714 5711 5708 5705 5700 5698
5592 5603 5613 5623 5631 5638 5645 5655 5662 5670 5677 5684 5691 5695 5701 5707 5712 5716 5720 5724 5727 5729 5732 5734 5735 5736 5735 5735 5734 5735 5733 5730 5730 5728 5725 5721 5717 5714 5709 5707 5703 5699 5695 5692
5585 5596 5607 5617 5625 5633 5640 5647 5656 5664 5672 5678 5684 5690 5695 5700 5706 5710 5714 5717 5720 5723 5726 5728 5729 5729 5728 5729 5730 5730 5726 5724 5722 5719 5717 5713 5711 5707 5705 5701 5697 5693 5690 5687
5579 5591 5602 5611 5619 5627 5635 5643 5651 5657 5664 5671 5678 5684 5689 5694 5699 5703 5707 5710 5714 5716 5719 5721 5722 5721 5722 5723 5726 5722 5718 5718 5715 5712 5710 5706 5704 5701 5698 5693 5689 5686 5683 5682
5573 5585 5596 5605 5614 5622 5631 5640 5647 5652 5658 5665 5671 5676 5683 5687 5692 5697 5701 5703 5707 5710 5713 5714 5714 5714 5715 5718 5718 5713 5712 5712 5709 5706 5704 5702 5697 5693 5690 5686 5682 5679 5677 5673
5567 5579 5590 5600 5609 5618 5626 5633 5639 5646 5653 5659 5665 5671 5677 5681 5686 5690 5694 5697 5699 5702 5705 5707 5707 5707 5709 5712 5706 5708 5707 5706 5702 5700 5698 5695 5691 5687 5684 5680 5678 5675 5671 5668
5562 5573 5585 5595 5604 5612 5620 5627 5634 5641 5649 5654 5660 5665 5670 5674 5678 5683 5687 5689 5693 5695 5697 5699 5700 5703 5703 5703 5702 5701 5700 5699 5696 5693 5692 5688 5685 5683 5680 5677 5673 5670 5667 5663
5558 5569 5581 5591 5599 5606 5614 5620 5628 5636 5642 5649 5654 5659 5663 5668 5671 5675 5680 5682 5685 5688 5691 5691 5694 5697 5696 5696 5696 5695 5694 5692 5690 5688 5686 5683 5680 5678 5674 5671 5668 5665 5662 5657
5554 5566 5578 5586 5592 5600 5606 5616 5624 5631 5637 5642 5647 5651 5655 5659 5665 5668 5672 5675 5678 5680 5683 5685 5688 5688 5690 5689 5690 5689 5688 5686 5684 5681 5679 5677 5675 5672 5668 5665 5662 5659 5656 5652
5554 5565 5571 5577 5584 5594 5604 5612 5620 5627 5632 5637 5640 5644 5650 5654 5658 5662 5665 5667 5670 5672 5677 5679 5680 5682 5683 5683 5682 5682 5681 5679 5676 5675 5673 5670 5668 5665 5661 5658 5656 5654 5650 5647
5549 5556 5563 5572 5582 5591 5601 5609 5617 5622 5626 5631 5635 5640 5644 5647 5651 5654 5657 5660 5663 5666 5669 5672 5674 5674 5675 5676 5675 5675 5673 5670 5668 5666 5665 5664 5661 5658 5656 5653 5651 5648 5644 5640
5543 5552 5561 5568 5579 5590 5599 5605 5611 5614 5620 5625 5629 5634 5637 5640 5644 5647 5651 5654 5657 5659 5663 5665 5667 5667 5668 5668 5668 5667 5665 5663 5661 5660 5659 5657 5654 5652 5650 5647 5645 5641 5637 5634
5539 5548 5556 5568 5578 5586 5592 5600 5604 5609 5615 5619 5623 5628 5633 5636 5639 5642 5645 5648 5650 5654 5657 5658 5659 5660 5661 5661 5661 5659 5658 5657 5656 5654 5653 5651 5649 5646 5643 5641 5638 5635 5632 5630
5535 5545 5557 5566 5575 5582 5588 5593 5598 5604 5608 5613 5618 5622 5627 5630 5633 5637 5639 5642 5645 5648 5649 5650 5652 5653 5654 5654 5653 5652 5651 5650 5650 5648 5647 5645 5642 5639 5637 5634 5632 5630 5628 5625
5534 5544 5554 5562 5567 5574 5581 5586 5590 5597 5603 5608 5611 5616 5619 5624 5627 5631 5633 5637 5639 5639 5642 5643 5644 5645 5645 5646 5646 5645 5644 5644 5643 5641 5640 5637 5634 5633 5630 5629 5628 5627 5624 5620
Wind_Speed
46 45 42 42 41 38 38 38 37 35 31 28 23 18 13 9 9 19 30 30 31 31 30 29 29 34 32 24 24 25 30 26 28 29 31 33 29 27 28 34 35 31 31 36
45 46 45 42 44 41 38 40 38 36 32 28 23 21 15 13 12 13 18 27 30 30 32 31 33 36 36 35 35 35 35 35 34 33 31 25 28 32 32 31 35 39 38 43
48 44 46 44 45 43 41 39 37 39 35 31 24 21 20 17 15 12 11 11 12 16 23 26 32 33 36 37 39 39 38 38 38 37 36 30 31 28 25 21 30 35 42 37
46 44 47 46 45 45 43 39 39 41 37 30 27 24 22 22 20 16 14 11 10 9 9 9 13 14 16 18 23 27 33 38 41 42 42 40 37 41 42 41 40 39 42 39
44 48 45 47 47 47 44 41 41 39 38 34 32 28 24 21 21 22 20 16 15 15 14 12 13 12 14 18 20 20 23 28 31 34 38 41 42 48 45 41 35 33 32 30
44 47 42 47 47 48 47 43 37 41 41 38 35 30 28 25 23 20 20 19 19 20 18 15 16 16 17 18 17 19 21 22 24 27 29 32 39 35 41 40 30 29 30 40
45 46 43 46 48 49 48 43 40 41 40 39 38 35 31 28 26 23 22 20 22 20 18 19 19 19 19 19 19 18 18 18 21 23 25 28 26 35 38 36 31 36 40 47
46 45 47 44 47 49 49 47 44 41 40 41 41 36 34 31 28 27 25 25 22 18 21 22 22 21 19 20 21 21 19 19 21 23 24 28 29 32 31 31 35 35 37 42
48 46 48 43 46 48 47 47 44 41 38 42 40 38 36 33 31 29 26 24 20 21 22 21 20 18 18 20 21 18 15 18 19 23 26 30 28 36 34 31 36 39 35 33
49 47 46 44 45 46 46 46 46 43 40 38 36 38 36 34 31 29 27 25 23 22 22 22 18 17 17 18 19 19 21 22 23 26 28 29 34 33 29 30 38 42 41 40
51 47 45 47 42 45 45 43 45 42 39 38 38 37 36 33 33 30 26 26 25 24 24 22 19 17 17 18 19 20 19 20 20 25 28 29 31 34 35 40 44 37 34 34
52 48 46 46 46 44 44 43 43 42 40 37 36 37 37 34 31 29 25 27 26 24 25 22 19 16 17 17 18 21 20 19 22 26 26 34 40 37 41 36 29 28 29 35
53 49 47 45 43 49 47 40 40 41 40 38 37 38 35 34 32 29 28 26 22 23 23 22 18 17 16 17 20 19 22 22 24 27 28 32 33 36 35 30 28 35 34 22
54 50 46 44 42 40 49 41 39 40 38 39 38 36 36 35 34 32 30 27 26 25 24 22 21 20 20 19 20 17 23 27 27 27 30 29 32 33 35 32 33 24 27 27
55 51 47 44 43 40 40 45 39 37 36 38 38 37 35 35 34 33 32 30 29 27 25 24 23 23 24 20 19 18 25 28 29 30 31 33 34 34 35 35 36 32 31 29
56 53 48 44 42 41 38 36 42 34 35 36 36 36 35 35 35 35 33 31 29 28 25 25 25 25 26 22 15 21 28 28 30 31 32 33 33 33 34 32 30 28 28 31
57 53 49 46 43 41 39 35 35 37 32 34 35 35 35 34 35 34 33 32 29 29 26 25 26 26 26 18 18 25 29 27 28 30 30 30 34 34 32 30 32 29 30 24
57 54 51 47 43 41 39 38 37 36 37 34 34 34 34 34 33 33 32 31 29 29 28 26 27 26 23 17 26 26 27 27 30 31 31 31 29 29 30 26 23 27 29 28
57 54 51 48 44 42 40 38 38 37 35 35 33 32 32 32 32 31 31 30 29 30 29 28 29 24 22 24 25 26 27 27 29 30 29 28 28 29 26 28 29 29 30 29
57 54 51 47 45 42 40 39 37 36 35 35 35 33 33 33 32 31 30 30 30 30 29 31 28 21 24 24 24 26 26 27 29 26 24 24 23 26 25 28 30 33 35 33
57 53 49 47 45 43 42 38 36 34 32 33 35 32 32 32 31 30 30 29 30 31 30 29 24 23 23 26 25 26 23 26 27 26 28 28 29 34 34 31 30 34 34 32
55 51 50 49 46 43 41 38 35 33 30 29 31 30 28 26 26 27 28 30 32 31 28 26 24 24 24 27 28 27 28 30 31 33 29 30 33 34 28 28 31 31 30 32
54 53 51 49 46 42 39 36 34 31 28 26 26 27 27 30 33 33 32 31 30 28 27 25 23 25 26 27 28 28 30 33 30 31 34 33 29 27 24 26 30 32 32 33
52 51 50 48 45 40 36 36 33 33 31 28 26 26 27 27 27 27 29 29 29 29 26 24 22 25 26 25 27 28 29 27 27 27 26 25 25 27 30 33 34 31 33 30
52 49 47 45 43 40 39 37 38 35 31 28 27 25 25 26 29 29 29 29 30 27 25 24 25 25 26 26 27 29 29 29 26 25 25 27 27 26 25 27 29 31 23 19
48 47 44 43 41 40 40 39 35 33 33 32 29 28 29 29 30 30 30 29 27 26 26 26 27 27 27 27 29 31 31 30 30 29 28 28 27 27 28 30 25 16 17 20
47 47 45 43 42 41 41 41 40 38 35 32 29 27 27 28 30 30 28 27 25 27 28 29 29 29 28 29 30 32 30 29 27 27 28 27 27 27 26 14 13 16 18 18
Wind_Direction
226 222 220 220 217 218 218 216 215 217 218 224 226 229 232 222 215 209 216 223 226 228 235 235 238 246 256 253 251 253 258 260 263 268 275 279 283 281 279 273 281 280 279 278
225 221 219 218 217 216 217 217 212 215 217 220 222 221 215 213 215 218 224 229 230 232 240 242 243 250 255 257 257 257 260 264 265 267 271 298 292 279 277 280 282 286 287 295
222 221 218 217 216 216 217 217 210 214 216 219 220 221 215 210 211 210 215 224 230 236 246 249 258 260 261 260 260 262 263 262 264 266 266 250 253 264 273 275 285 291 291 297
218 221 218 216 216 215 216 217 212 213 214 213 214 215 218 216 220 220 217 211 216 226 235 245 262 270 274 275 266 264 264 267 265 265 266 266 264 269 274 279 286 290 294 295
216 218 218 215 215 214 216 216 212 213 214 212 214 214 218 218 223 227 229 231 236 240 246 250 265 282 284 282 288 279 275 271 273 271 269 269 271 268 275 279 288 285 287 285
214 215 219 214 214 214 216 215 213 213 214 211 214 214 219 222 224 227 233 238 245 250 255 266 267 274 280 288 296 299 299 296 293 289 284 277 273 282 277 277 283 287 285 277
211 214 215 216 214 214 215 217 216 216 215 215 214 214 218 224 226 227 233 240 246 258 267 262 265 270 277 286 293 303 307 306 304 304 300 291 288 280 279 284 283 276 279 283
210 212 212 215 214 213 215 217 216 215 215 216 218 216 220 224 227 231 233 241 251 259 261 267 271 272 276 280 288 293 301 307 311 315 313 309 300 286 282 287 285 285 289 291
209 209 211 213 214 214 214 217 218 217 217 218 218 219 222 225 227 231 235 241 249 251 258 260 265 271 278 282 285 290 299 305 314 317 322 320 303 300 294 280 288 289 292 301
207 207 209 210 212 213 214 216 217 219 218 219 217 220 223 224 227 231 235 239 242 253 258 262 264 268 273 278 288 297 301 307 319 323 324 318 322 311 308 294 290 290 293 298
205 206 207 210 211 212 213 215 217 219 220 220 219 220 222 223 226 230 233 237 241 250 257 261 262 266 269 275 281 289 298 307 314 315 319 312 315 307 298 297 291 291 297 299
204 206 205 211 209 210 213 215 217 218 220 222 220 220 221 224 225 226 228 237 240 250 256 258 261 263 269 273 280 286 295 305 310 313 314 316 319 312 309 302 295 290 290 294
203 205 206 210 215 214 206 215 217 219 220 222 222 223 224 227 229 231 235 241 244 249 254 258 264 268 270 276 279 294 298 301 301 307 306 311 308 307 310 303 294 296 292 283
202 205 205 208 213 219 208 209 216 219 221 223 225 224 225 226 229 233 236 238 241 247 253 258 262 268 272 277 283 295 292 296 299 301 309 306 305 303 302 293 297 306 308 281
202 204 205 207 211 217 219 207 213 218 222 224 227 227 227 228 230 232 233 238 242 247 252 255 258 264 272 276 285 298 290 292 298 303 308 305 306 305 312 305 304 297 309 306
202 204 206 208 210 214 220 220 209 217 222 225 228 228 229 230 230 232 234 238 243 247 251 253 258 262 269 278 295 287 284 293 297 297 299 303 307 308 309 309 301 292 304 297
201 204 207 207 210 213 215 221 220 216 221 224 227 228 231 233 234 234 236 240 245 250 252 255 258 263 270 281 283 276 287 294 291 288 292 306 309 305 310 308 303 291 292 292
201 203 206 208 209 212 215 217 220 223 218 224 227 229 232 235 237 239 241 244 248 253 256 258 259 263 272 280 274 285 288 289 289 283 298 309 307 309 307 305 294 309 296 304
201 204 205 206 209 212 215 219 220 223 224 224 228 231 234 236 238 240 244 248 251 254 256 254 258 264 265 270 283 288 292 293 291 291 300 309 304 300 305 312 305 308 311 310
200 202 204 206 209 212 215 218 221 223 226 227 230 235 237 239 241 244 246 248 251 255 253 256 257 258 262 271 280 287 292 289 285 285 300 307 309 307 305 310 306 307 307 309
199 201 204 206 208 209 213 218 221 223 227 231 232 235 238 239 241 243 246 249 253 254 252 254 257 255 262 269 278 284 288 287 281 281 292 298 297 305 301 300 298 305 309 312
198 200 203 205 207 211 213 215 218 221 229 230 230 232 234 234 238 243 247 251 254 254 251 248 253 257 259 268 277 285 290 292 285 278 285 294 296 297 296 294 299 301 305 312
197 200 203 205 208 210 213 216 217 226 228 220 224 234 240 241 243 245 248 248 249 248 248 249 251 254 260 269 277 285 295 299 294 284 281 291 292 297 288 294 300 303 305 311
199 202 204 205 207 210 212 210 212 214 220 228 230 231 233 237 241 240 239 242 246 245 247 246 250 259 267 277 285 291 301 295 283 278 281 286 296 292 288 295 298 300 306 306
198 200 204 206 208 208 209 209 212 217 224 225 229 234 233 234 235 235 241 244 242 244 244 246 252 259 268 277 286 295 294 285 282 281 292 292 292 295 298 299 300 303 303 310
197 200 203 204 206 208 209 211 214 218 223 227 230 234 238 240 241 243 243 244 245 244 244 249 255 261 267 274 283 292 285 282 279 280 291 288 294 297 297 299 303 307 313 316
198 199 202 204 206 208 211 213 218 220 223 226 230 234 235 240 240 240 241 242 244 243 249 254 257 262 270 274 282 287 275 275 283 287 289 290 292 291 296 294 306 307 312 321